STARLINK-30313, 57676

Orbit data source: Space-Track

STARLINK-30313, 57676 is a payload satellite owned by SpaceX/Seattle (US) in LEO that was launched on Tue, 22 Aug 2023 UTC via an FALCON 9 launch vehicle from the Air Force Western Test Range (AFWTR). Payload-class satellites include a variety of spacecraft equipped with specific instruments for various scientific and technological missions. These include communications satellites like Starlink; space stations such as the ISS; scientific satellites like the Hubble; Earth observation satellites from companies like Planet Labs, Umbra, and HawkEye 360; GPS; miniature CubeSats for education and research; and military/defense satellites.

Loading next visibility...
Identifier
57676, 2023-124P
Orbit
LEO
Country
Flag of USUS
Related business
Manufacturer
SpaceX/Seattle
Mission
Operational Commercial Communications
Bus & Motor
STARLINK V2M, Unknown motor
Mass
730 kg wet, ~700 kg dry
Launch date (UTC)
2023-08-22 (3 years ago)
Launch vehicle
FALCON 9
Launch site
Air Force Western Test Range (AFWTR)
Object type
Payload
Rocket body
Debris
Shape & HBR
Box + 2 Pan, 17.7 m
Radar Cross Section
33.884 m², Large (>1 m²)

Expand to show TLE details & history
Last TLE update: 2 days ago

TLE from 2 days ago
0 STARLINK-30313
1 57676U 23124P   26171.15269016  .00000675  00000-0  34950-4 0  9993
2 57676  53.1615  91.0508 0001527 102.2240 257.8932 15.30177552159257
Epoch: 2026-06-20T03:39Z
TLE epoch observation values (Epoch: 2026-06-20T03:39:52.429Z)
Latitude
-0.00003°
Longitude
127.71092°
Altitude
476.402 km
Speed
7.629 km/s
True Right ascension
06h 04m 12s
True Declination
0° 00' 00"
Sunlit
Object was in daylight at epoch
Visualization orbit readout
Latitude
Unknown
Longitude
Unknown
Altitude
Unknown
Speed
Unknown
Apparent Right ascension
Unknown
Apparent Declination
Unknown
Sunlit
N/A
Visualization observer readout
Local Sidereal Time
00:31:11
Azimuth
Unknown
Elevation
Unknown
Doppler factor
Unknown
Orbital elements
Apogee altitude
476.585 km
Perigee altitude
474.492 km
Semi-major axis
6,853.675 km
Eccentricity
0.00015
Inclination
53.1615°
RAAN
91.0508°
Arg. of periapsis
102.224°
True anomaly
257.87609°
Mean anomaly
257.8932°
Eccentric anomaly
257.88465°
Mean motion
3.82523 °/min
Orbital period
94.11 mins
BSTAR
0.00003495
Loading maneuver chart data...
Computing Atmospheric mass density...
Loading historical data...
Loading historical data...
Loading historical data...
Loading historical data...
Loading historical data...
Loading historical data...
Loading historical data...

Documentation

Showing up to 5 results
|